Location: *
(37.5724°S, 58.0067°E)
Time: 11:13:07
(UTC+00:00)

USA 229 DEB - Pass Details

Date: 01 December 2021
Orbit: 943 x 1269 km, 63.4° (Epoch: 14 January)

Event Time Altitude Azimuth Distance (km) Brightness Sun altitude
Rises 15:31:45 0° 22° (NNE) 4,213 6.3 -3.9°
Reaches altitude 10° 15:36:02 10° 43° (NE) 3,236 5.6 -4.6°
Maximum altitude 15:40:06 15° 75° (ENE) 2,833 5.3 -5.3°
Drops below altitude 10° 15:44:07 10° 107° (ESE) 3,177 5.8 -5.9°
Sets 15:48:13 0° 128° (SE) 4,093 6.6 -6.6°
